Hourly Data Report for October 05, 2017

All times are specified in Local Standard Time (LST). Add 1 hour to adjust for Daylight Saving Time where and when it is observed.

SQUAMISH AIRPORT
BRITISH COLUMBIA

49°46'59.550" N
123°09'40.300" W
53.70 m
10476F0
71207
WSK

Download Data

Hourly Data (October 2017)
Hourly Data Report for October 5, 2017
Temp Definition
°C
Dew Point Temp Definition
°C
Rel Hum Definition
%
Wind Dir Definition
10's deg

Wind Spd Definition
km/h
Visibility Definition
km
Stn Press Definition
kPa
Hmdx Definition


Wind Chill Definition


Weather Definition


TIME
00:00 5.6 4.2 91 3 2   101.57     LegendNANA
01:00 5.5 4.2 91 3 4   101.59     LegendNANA
02:00 4.6 3.7 94 4 1   101.59     LegendNANA
03:00 4.6 3.6 94 4 3   101.61     LegendNANA
04:00 4.4 3.5 94 3 2   101.63     LegendNANA
05:00 4.3 3.5 95 5 3   101.63     LegendNANA
06:00 3.8 3.3 96 1 2   101.63     LegendNANA
07:00 4.1 3.5 96 4 3   101.67     LegendNANA
08:00 6.0 4.8 92 34 3   101.68     LegendNANA
09:00 9.3 4.7 73 34 3   101.66     LegendNANA
10:00 12.7 5.3 61 34 3   101.60     LegendNANA
11:00 16.0 4.0 45 10 2   101.54     LegendNANA
12:00 17.7 4.1 41 18 8   101.47     LegendNANA
13:00 18.5 4.4 39 17 13   101.39     LegendNANA
14:00 18.2 4.5 40 16 11   101.35     LegendNANA
15:00 17.5 5.3 45 17 12   101.30     LegendNANA
16:00 15.7 5.7 51 15 7   101.27     LegendNANA
17:00 13.9 6.5 61 15 6   101.27     LegendNANA
18:00 10.5 7.0 79 4 1   101.31     LegendNANA
19:00 9.1 6.9 86 5 3   101.32     LegendNANA
20:00 8.1 6.5 90 5 3   101.31     LegendNANA
21:00 6.9 5.8 93 5 2   101.33     LegendNANA
22:00 6.2 5.3 94 6 3   101.35     LegendNANA
23:00 5.7 5.1 96 3 3   101.36     LegendNANA

Notes on Data Quality.

Legend

  • E = Estimated
  • M = Missing
  • NA = Not Available
  • ‡ = Partner data that is not subject to review by the National Climate Archives
Date modified: